CW4198 Weather Reports


time (UTC)temp
C
wind
direction
speed
KPH
gust
KPH
rain 1hr
cm
rain 24hr
cm
rain mn
cm
humidity
%
barometer
mb
20181019115719 20 44 14.5 24.1 0.00 0.00 0.00 39 1010.8
20181019114719 20 35 16.1 22.5 0.00 0.00 0.00 39 1010.8
20181019113719 20 18 4.8 16.1 0.00 0.00 0.00 42 1010.8
20181019112719 19 61 11.3 16.1 0.00 0.00 0.00 44 1010.8
20181019105719 19 65 12.9 16.1 0.00 0.05 0.00 47 1010.8
20181019103704 18 58 8.0 9.7 0.00 0.05 0.00 49 1010.8
20181019094704 18 30 11.3 14.5 0.00 0.05 0.00 51 1010.8
20181019093704 18 71 3.2 12.9 0.00 0.05 0.00 52 1010.8
20181019083704 17 25 6.4 11.3 0.00 0.05 0.00 54 1009.8
20181019081704 16 25 11.3 11.3 0.00 0.05 0.00 57 1009.8
20181019080704 16 24 6.4 9.7 0.00 0.05 0.00 58 1009.8
20181019075704 16 32 11.3 11.3 0.00 0.05 0.00 58 1009.8
20181019073704 16 360 8.0 8.0 0.00 0.05 0.00 60 1008.8
20181019072706 16 39 8.0 9.7 0.00 0.08 0.00 58 1008.8
20181019064704 16 9 8.0 9.7 0.00 0.08 0.00 61 1007.8
20181019063704 15 337 8.0 8.0 0.00 0.08 0.00 62 1007.8
20181019061704 15 353 4.8 8.0 0.00 0.08 0.00 62 1007.8
20181019055704 15 18 0.0 0.0 0.00 0.13 0.00 62 1008.8
20181019054703 15 15 0.0 0.0 0.00 0.13 0.00 62 1008.8
20181019053750 15 342 0.0 0.0 0.00 0.13 0.00 62 1007.8
20181019052750 15 8 0.0 0.0 0.00 0.18 0.00 63 1008.8
20181019050750 15 17 0.0 0.0 0.00 0.18 0.00 64 1007.8
20181019044750 15 25 0.0 0.0 0.00 0.18 0.00 63 1007.8
20181019043749 15 57 3.2 8.0 0.00 0.18 0.00 63 1007.8
20181019042750 15 41 3.2 8.0 0.00 0.18 0.00 63 1007.8
20181019041750 15 43 0.0 0.0 0.00 0.18 0.00 62 1007.8
20181019034750 15 40 6.4 8.0 0.00 0.18 0.00 62 1007.8
20181019033750 15 15 4.8 8.0 0.00 0.18 0.00 64 1007.8
20181019031750 15 22 3.2 8.0 0.00 0.20 0.00 65 1007.8
20181019030750 15 22 8.0 11.3 0.00 0.20 0.00 66 1007.8
20181019025750 15 8 8.0 11.3 0.00 0.20 0.00 66 1007.8
20181019020750 15 19 8.0 8.0 0.00 0.20 0.00 63 1008.8
20181019015750 15 22 8.0 8.0 0.00 0.20 0.00 63 1008.8
20181019011750 15 2 4.8 8.0 0.00 0.20 0.00 60 1008.8
20181019010750 15 27 6.4 8.0 0.00 0.20 0.00 59 1008.8
20181019005750 15 31 3.2 8.0 0.00 0.20 0.00 57 1008.8
20181019004750 16 7 4.8 6.4 0.00 0.20 0.00 57 1008.8
20181018235750 15 13 0.0 0.0 0.00 0.20 0.00 59 1008.8
20181018233750 16 41 0.0 0.0 0.00 0.20 0.00 58 1008.8
20181018232749 16 41 0.0 0.0 0.00 0.20 0.00 59 1008.8
20181018231750 16 48 0.0 0.0 0.00 0.20 0.00 60 1008.8
20181018225749 16 19 0.0 0.0 0.00 0.20 0.20 59 1008.8
20181018224749 16 35 0.0 0.0 0.00 0.20 0.20 61 1008.8
20181018221749 16 73 0.0 0.0 0.00 0.20 0.20 56 1008.8
20181018220749 16 44 0.0 0.0 0.00 0.25 0.20 56 1008.8
20181018215722 16 15 0.0 0.0 0.00 0.33 0.20 55 1008.8
20181018213722 17 22 0.0 0.0 0.00 0.51 0.20 54 1008.8
20181018211722 17 15 0.0 0.0 0.00 0.51 0.20 58 1008.8
20181018210722 16 347 0.0 0.0 0.00 0.51 0.20 58 1008.8
20181018205722 16 347 0.0 0.0 0.00 0.51 0.20 58 1008.8
20181018203722 16 346 0.0 0.0 0.00 0.51 0.20 58 1007.8
20181018202722 16 346 0.0 0.0 0.00 0.51 0.20 57 1007.8
20181018201722 16 334 0.0 0.0 0.00 0.51 0.20 56 1007.8
20181018194722 17 334 0.0 0.0 0.00 0.51 0.20 54 1007.8
20181018193722 16 334 0.0 0.0 0.00 0.51 0.20 54 1007.8
20181018192722 16 334 0.0 0.0 0.00 0.51 0.20 53 1007.8
20181018191722 16 317 0.0 0.0 0.00 0.51 0.20 51 1007.8
20181018185722 17 317 0.0 0.0 0.00 0.51 0.20 49 1007.8
20181018183722 17 317 0.0 0.0 0.00 0.51 0.20 47 1007.8
20181018182722 17 317 0.0 0.0 0.00 0.51 0.20 47 1007.8
20181018180722 18 320 0.0 8.0 0.00 0.51 0.20 46 1006.8
20181018173721 19 333 4.8 11.3 0.00 0.51 0.20 37 1006.8
20181018172722 20 350 3.2 4.8 0.00 0.51 0.20 36 1006.8
20181018171722 20 7 8.0 12.9 0.00 0.51 0.20 35 1006.8
20181018165721 22 23 8.0 12.9 0.00 0.51 0.20 31 1005.8
20181018163727 22 9 0.0 11.3 0.00 0.51 0.20 31 1005.8
20181018160728 22 360 6.4 8.0 0.00 0.51 0.20 32 1005.8
20181018144727 21 53 8.0 14.5 0.00 0.51 0.20 33 1006.8
20181018141727 20 20 11.3 12.9 0.00 0.51 0.20 35 1005.8
20181018135727 20 37 8.0 12.9 0.00 0.51 0.20 38 1006.8
20181018134727 20 32 14.5 17.7 0.00 0.51 0.20 38 1006.8
20181018133727 20 16 11.3 17.7 0.00 0.51 0.20 37 1006.8
20181018132727 20 47 4.8 17.7 0.00 0.51 0.20 37 1006.8
20181018131727 20 43 17.7 17.7 0.00 0.51 0.20 37 1006.8
20181018130727 20 29 11.3 14.5 0.00 0.51 0.20 38 1006.8
20181018121726 18 36 4.8 8.0 0.00 0.51 0.20 50 1006.8